When you browse on this site, cookies collect data to enhance your experience and personalize the content and advertising you see.
Visit our Privacy Policy to learn more. By continuing to use the site, you agree to this use of cookies and data.

Meteo pe oră la Dzhurzhivka

Astăzi, 19 Septembrie, Sâmbătă

Timp Temperatura Precipitaţii Vânt Presiune Umiditate
00:00 +7°C° 0 mm 2 m/s 748 mmHg 80%
01:00 +7°C° 0 mm 2 m/s 748 mmHg 82%
02:00 +7°C° 0 mm 3 m/s 748 mmHg 82%
03:00 +7°C° 0 mm 3 m/s 748 mmHg 83%
04:00 +7°C° 0 mm 3 m/s 748 mmHg 84%
05:00 +5°C° 0 mm 3 m/s 748 mmHg 86%
06:00 +8°C° 0 mm 3 m/s 748 mmHg 80%
07:00 +9°C° 0 mm 3 m/s 748 mmHg 74%
08:00 +11°C° 0 mm 3 m/s 748 mmHg 67%
09:00 +12°C° 0 mm 3 m/s 748 mmHg 59%
10:00 +14°C° 0 mm 3 m/s 748 mmHg 51%
11:00 +17°C° 0 mm 2 m/s 747 mmHg 44%
12:00 +18°C° 0 mm 2 m/s 747 mmHg 41%
13:00 +19°C° 0 mm 2 m/s 747 mmHg 39%
14:00 +20°C° 0 mm 2 m/s 746 mmHg 36%
15:00 +20°C° 0 mm 2 m/s 746 mmHg 39%
16:00 +20°C° 0 mm 2 m/s 746 mmHg 41%
17:00 +21°C° 0 mm 1 m/s 746 mmHg 43%
18:00 +19°C° 0 mm 1 m/s 746 mmHg 49%
19:00 +16°C° 0 mm 1 m/s 745 mmHg 54%
20:00 +14°C° 0 mm 1 m/s 745 mmHg 59%
21:00 +13°C° 0 mm 1 m/s 745 mmHg 62%
22:00 +13°C° 0 mm 2 m/s 746 mmHg 65%
23:00 +12°C° 0 mm 2 m/s 746 mmHg 68%

Mâine, 20 Septembrie, Duminică

Timp Temperatura Precipitaţii Vânt Presiune Umiditate
00:00 +12°C° 0 mm 1 m/s 746 mmHg 71%
01:00 +11°C° 0 mm 1 m/s 746 mmHg 73%
02:00 +11°C° 0 mm 1 m/s 746 mmHg 76%
03:00 +10°C° 0 mm 1 m/s 746 mmHg 76%
04:00 +10°C° 0 mm 1 m/s 746 mmHg 76%
05:00 +9°C° 0 mm 1 m/s 746 mmHg 76%
06:00 +11°C° 0 mm 1 m/s 746 mmHg 69%
07:00 +12°C° 0 mm 1 m/s 746 mmHg 62%
08:00 +13°C° 0 mm 1 m/s 746 mmHg 55%
09:00 +15°C° 0 mm 2 m/s 746 mmHg 49%
10:00 +17°C° 0 mm 2 m/s 746 mmHg 43%
11:00 +19°C° 0 mm 2 m/s 746 mmHg 36%
12:00 +20°C° 0 mm 2 m/s 746 mmHg 35%
13:00 +21°C° 0 mm 2 m/s 746 mmHg 33%
14:00 +23°C° 0 mm 2 m/s 745 mmHg 32%
15:00 +21°C° 0 mm 2 m/s 745 mmHg 36%
16:00 +21°C° 0 mm 2 m/s 745 mmHg 40%
17:00 +20°C° 0 mm 2 m/s 745 mmHg 44%
18:00 +18°C° 0 mm 2 m/s 745 mmHg 49%
19:00 +17°C° 0 mm 3 m/s 745 mmHg 53%
20:00 +14°C° 0 mm 3 m/s 745 mmHg 58%
21:00 +13°C° 0 mm 3 m/s 745 mmHg 57%
22:00 +13°C° 0 mm 3 m/s 745 mmHg 56%
23:00 +12°C° 0 mm 3 m/s 746 mmHg 55%

Poimâine, 21 Septembrie, Luni

Timp Temperatura Precipitaţii Vânt Presiune Umiditate
00:00 +12°C° 0 mm 3 m/s 746 mmHg 53%
01:00 +12°C° 0 mm 3 m/s 745 mmHg 50%
02:00 +11°C° 0 mm 3 m/s 745 mmHg 48%
03:00 +11°C° 0 mm 3 m/s 745 mmHg 49%
04:00 +10°C° 0 mm 3 m/s 745 mmHg 49%
05:00 +10°C° 0 mm 3 m/s 745 mmHg 50%
06:00 +11°C° 0 mm 3 m/s 745 mmHg 50%
07:00 +13°C° 0 mm 3 m/s 745 mmHg 49%
08:00 +14°C° 0 mm 3 m/s 745 mmHg 49%
09:00 +17°C° 0 mm 3 m/s 745 mmHg 44%
10:00 +20°C° 0 mm 3 m/s 745 mmHg 39%
11:00 +22°C° 0 mm 3 m/s 745 mmHg 35%
12:00 +24°C° 0 mm 3 m/s 745 mmHg 33%
13:00 +25°C° 0 mm 3 m/s 745 mmHg 32%
14:00 +26°C° 0 mm 3 m/s 745 mmHg 30%
15:00 +25°C° 0 mm 3 m/s 744 mmHg 33%
16:00 +25°C° 0 mm 2 m/s 744 mmHg 36%
17:00 +24°C° 0 mm 2 m/s 744 mmHg 39%
18:00 +21°C° 0 mm 2 m/s 744 mmHg 41%
19:00 +19°C° 0 mm 2 m/s 744 mmHg 43%
20:00 +17°C° 0 mm 2 m/s 744 mmHg 45%
21:00 +16°C° 0 mm 3 m/s 744 mmHg 45%
22:00 +16°C° 0 mm 3 m/s 744 mmHg 46%
23:00 +14°C° 0 mm 3 m/s 744 mmHg 46%

22 Septembrie, Marţi

Timp Temperatura Precipitaţii Vânt Presiune Umiditate
00:00 +14°C° 0 mm 3 m/s 744 mmHg 46%
01:00 +13°C° 0 mm 3 m/s 744 mmHg 47%
02:00 +13°C° 0 mm 3 m/s 744 mmHg 47%
03:00 +12°C° 0 mm 3 m/s 744 mmHg 51%
04:00 +12°C° 0 mm 3 m/s 744 mmHg 55%
05:00 +11°C° 0 mm 3 m/s 744 mmHg 58%
06:00 +13°C° 0 mm 3 m/s 744 mmHg 58%
07:00 +14°C° 0 mm 4 m/s 744 mmHg 58%
08:00 +17°C° 0 mm 4 m/s 744 mmHg 58%
09:00 +19°C° 0 mm 5 m/s 744 mmHg 49%
10:00 +21°C° 0 mm 5 m/s 744 mmHg 40%
11:00 +23°C° 0 mm 6 m/s 744 mmHg 31%
12:00 +24°C° 0 mm 6 m/s 744 mmHg 29%
13:00 +24°C° 0 mm 6 m/s 744 mmHg 27%
14:00 +26°C° 0 mm 5 m/s 743 mmHg 24%
15:00 +25°C° 0 mm 5 m/s 743 mmHg 27%
16:00 +25°C° 0 mm 4 m/s 742 mmHg 29%
17:00 +24°C° 0 mm 3 m/s 742 mmHg 32%
18:00 +21°C° 0 mm 3 m/s 742 mmHg 33%
19:00 +19°C° 0 mm 3 m/s 742 mmHg 34%
20:00 +17°C° 0 mm 3 m/s 742 mmHg 35%
21:00 +16°C° 0 mm 3 m/s 742 mmHg 36%
22:00 +14°C° 0 mm 3 m/s 742 mmHg 36%
23:00 +14°C° 0 mm 3 m/s 742 mmHg 37%

23 Septembrie, Miercuri

Timp Temperatura Precipitaţii Vânt Presiune Umiditate
00:00 +13°C° 0 mm 4 m/s 742 mmHg 42%
01:00 +13°C° 0 mm 4 m/s 741 mmHg 47%
02:00 +13°C° 0 mm 4 m/s 741 mmHg 52%
03:00 +12°C° 0 mm 4 m/s 741 mmHg 57%
04:00 +12°C° 0 mm 4 m/s 741 mmHg 62%
05:00 +11°C° 0 mm 3 m/s 741 mmHg 67%
06:00 +12°C° 0 mm 4 m/s 741 mmHg 64%
07:00 +13°C° 0 mm 5 m/s 741 mmHg 60%
08:00 +14°C° 0 mm 5 m/s 741 mmHg 56%
09:00 +16°C° 0 mm 6 m/s 740 mmHg 49%
10:00 +20°C° 0 mm 6 m/s 740 mmHg 42%
11:00 +22°C° 0 mm 6 m/s 740 mmHg 35%
12:00 +23°C° 0 mm 6 m/s 740 mmHg 33%
13:00 +24°C° 0 mm 6 m/s 739 mmHg 31%
14:00 +26°C° 0 mm 6 m/s 739 mmHg 28%
15:00 +25°C° 0 mm 5 m/s 738 mmHg 31%
16:00 +23°C° 0 mm 4 m/s 738 mmHg 33%
17:00 +24°C° 0 mm 3 m/s 738 mmHg 35%
18:00 +21°C° 0 mm 3 m/s 738 mmHg 37%
19:00 +19°C° 0 mm 3 m/s 738 mmHg 40%
20:00 +17°C° 0 mm 3 m/s 738 mmHg 42%
21:00 +16°C° 0 mm 3 m/s 738 mmHg 45%
22:00 +16°C° 0 mm 3 m/s 738 mmHg 47%
23:00 +14°C° 0 mm 3 m/s 737 mmHg 50%

24 Septembrie, Joi

Timp Temperatura Precipitaţii Vânt Presiune Umiditate
00:00 +14°C° 0 mm 3 m/s 737 mmHg 53%
01:00 +13°C° 0 mm 3 m/s 737 mmHg 55%
02:00 +13°C° 0 mm 3 m/s 737 mmHg 58%
03:00 +13°C° 0 mm 3 m/s 737 mmHg 61%
04:00 +13°C° 0 mm 3 m/s 737 mmHg 64%
05:00 +12°C° 0 mm 3 m/s 737 mmHg 67%
06:00 +13°C° 0 mm 3 m/s 737 mmHg 68%
07:00 +14°C° 0 mm 4 m/s 737 mmHg 69%
08:00 +15°C° 0 mm 4 m/s 737 mmHg 70%
09:00 +18°C° 0 mm 4 m/s 737 mmHg 64%
10:00 +21°C° 0 mm 5 m/s 737 mmHg 57%
11:00 +23°C° 0 mm 5 m/s 737 mmHg 50%
12:00 +25°C° 0 mm 4 m/s 737 mmHg 47%
13:00 +26°C° 0 mm 4 m/s 737 mmHg 44%
14:00 +27°C° 0 mm 4 m/s 737 mmHg 41%
15:00 +26°C° 0 mm 3 m/s 737 mmHg 44%
16:00 +25°C° 0 mm 3 m/s 736 mmHg 46%
17:00 +25°C° 0 mm 2 m/s 736 mmHg 49%
18:00 +23°C° 0 mm 2 m/s 736 mmHg 51%
19:00 +22°C° 0 mm 1 m/s 736 mmHg 54%
20:00 +20°C° 0 mm 1 m/s 736 mmHg 57%
21:00 +19°C° 0 mm 2 m/s 736 mmHg 57%
22:00 +19°C° 0 mm 2 m/s 736 mmHg 57%
23:00 +19°C° 0 mm 2 m/s 737 mmHg 57%
Arată mai mult